Flag for Sweden Weather past 2 weeks in Södertälje, Sweden

Now
43 °F

Overcast.


Feels Like: 41 °F
Forecast: 40 / 54 °F
Wind: 3 mph from Southwest

Location: Stockholm Bromma Airport

Current Time: Apr 27, 2015 at 3:03:52 AM

Latest Report: Apr 27, 2015 at 2:20 AM


Visibility: N/A

Pressure: 29.65 "Hg

Humidity: 61%

Dew point: 30 °F

Location of SödertäljeLocation

Historic Weather in Södertälje — Graph

°F

Södertälje temperature yesterday

Maximum temperature yesterday: 57 °F (at 2:20 PM)
Minimum temperature yesterday: 41 °F (at 11:20 PM)
Average temperature yesterday: 51 °F

Past Weeks' High & Low Weather Summary

 TemperatureHumidityPressure
High61 °F (Apr 19, 3:50 PM)100% (Apr 12, 7:50 AM)30.24 "Hg (Apr 12, 7:50 AM)
Low30 °F (Apr 18, 5:20 AM)22% (Apr 23, 11:20 AM)29.33 "Hg (Apr 15, 10:50 PM)
Average46 °F61%29.81 "Hg
* Reported Apr 12 1:20 AM — Apr 27 1:50 AM, Södertälje, Weather by CustomWeather, © 2015

Note: Actual official high and low records may vary slightly from our data, if they occured in-between our weather recording intervals... More about our weather records

Advertising

Södertälje weather history for previous 24 hours

 ConditionsComfort  
Time TempWeatherWind HumidityBarometerVisibility
1:50 AM
Mon, Apr 27
43 °FOvercast.5 mph57%29.65 "HgN/A
1:20 AM43 °FOvercast.3 mph57%29.65 "HgN/A
12:50 AM43 °FOvercast.3 mph61%29.65 "HgN/A
12:20 AM43 °FQuite cool.3 mph61%29.65 "HgN/A
11:50 PM
Sun, Apr 26
41 °FOvercast.2 mph66%29.65 "HgN/A
11:20 PM41 °FOvercast.1 mph61%29.65 "HgN/A
10:50 PM43 °FPassing clouds.3 mph57%29.65 "HgN/A
10:20 PM43 °FPassing clouds.3 mph57%29.65 "HgN/A
9:50 PM45 °FClear.3 mph53%29.62 "Hg10 mi
9:20 PM46 °FSunny.3 mph50%29.62 "Hg10 mi
8:50 PM48 °FSunny.3 mph40%29.62 "Hg10 mi
8:20 PM50 °FSunny.8 mph37%29.62 "Hg10 mi
7:50 PM52 °FSunny.10 mph35%29.59 "Hg10 mi
7:20 PM54 °FSunny.13 mph33%29.59 "Hg10 mi
6:50 PM55 °FSunny.15 mph28%29.59 "Hg10 mi
6:20 PM55 °FSunny.15 mph28%29.59 "Hg10 mi
5:50 PM55 °FSunny.16 mph26%29.59 "Hg10 mi
5:20 PM55 °FSunny.12 mph26%29.59 "Hg10 mi
4:50 PM57 °FSunny.14 mph25%29.59 "Hg10 mi
4:20 PM57 °FSunny.12 mph25%29.56 "Hg10 mi
3:50 PM57 °FPassing clouds.12 mph27%29.56 "HgN/A
3:20 PM57 °FSunny.12 mph27%29.56 "Hg10 mi
2:50 PM57 °FSunny.13 mph29%29.56 "Hg10 mi
2:20 PM57 °FSunny.13 mph29%29.56 "Hg10 mi
1:50 PM55 °FSunny.15 mph28%29.56 "Hg10 mi
1:20 PM55 °FSunny.16 mph33%29.56 "Hg10 mi
12:50 PM55 °FSunny.14 mph33%29.56 "Hg10 mi
12:20 PM55 °FPassing clouds.14 mph33%29.56 "HgN/A
11:50 AM55 °FPassing clouds.15 mph31%29.56 "HgN/A
11:20 AM55 °FPassing clouds.15 mph33%29.53 "HgN/A
10:50 AM55 °FPassing clouds.15 mph59%29.53 "HgN/A
10:20 AM54 °FPassing clouds.12 mph67%29.53 "HgN/A
9:50 AM52 °FPartly sunny.10 mph77%29.53 "HgN/A
9:20 AM54 °FPartly sunny.10 mph77%29.53 "HgN/A
8:50 AM52 °FBroken clouds.9 mph82%29.53 "HgN/A
8:20 AM50 °FFog.7 mph88%29.53 "Hg6 mi
7:50 AM50 °FFog.6 mph94%29.53 "Hg4 mi
7:20 AM50 °FFog.7 mph94%29.53 "Hg3 mi
6:50 AM48 °FFog.8 mph94%29.53 "Hg3 mi
6:20 AM48 °FFog.5 mph100%29.50 "Hg2 mi
5:50 AM48 °FFog.6 mph100%29.50 "Hg2 mi
5:20 AM48 °FFog.6 mph100%29.50 "Hg2 mi
4:50 AM48 °FFog.6 mph94%29.50 "Hg1 mi
4:20 AM48 °FFog.5 mph94%29.50 "Hg1 mi
3:50 AM46 °FFog.5 mph100%29.50 "Hg1 mi
3:20 AM46 °FFog.6 mph100%29.50 "Hg1 mi
Weather by CustomWeather, © 2015

See weather overviewHow to use our weather pages